Year,Month,Day,Hour,Minute,Value (Times are PST for temperature in C)
2007,10,13,00,00,6.00
2007,10,13,00,01,6.00
2007,10,13,00,02,6.00
2007,10,13,00,03,5.90
2007,10,13,00,04,5.90
2007,10,13,00,05,5.90
2007,10,13,00,06,5.90
2007,10,13,00,07,5.90
2007,10,13,00,08,5.90
2007,10,13,00,09,5.90
2007,10,13,00,10,5.80
2007,10,13,00,11,5.80
2007,10,13,00,12,5.70
2007,10,13,00,13,5.70
2007,10,13,00,14,5.60
2007,10,13,00,15,5.60
2007,10,13,00,16,5.60
2007,10,13,00,17,5.50
2007,10,13,00,18,5.50
2007,10,13,00,19,5.50
2007,10,13,00,20,5.40
2007,10,13,00,21,5.30
2007,10,13,00,22,5.30
2007,10,13,00,23,5.20
2007,10,13,00,24,5.20
2007,10,13,00,25,5.10
2007,10,13,00,26,5.10
2007,10,13,00,27,5.10
2007,10,13,00,28,5.00
2007,10,13,00,29,5.00
2007,10,13,00,30,5.00
2007,10,13,00,31,4.90
2007,10,13,00,32,4.90
2007,10,13,00,33,4.90
2007,10,13,00,34,4.90
2007,10,13,00,35,4.90
2007,10,13,00,36,4.90
2007,10,13,00,37,4.90
2007,10,13,00,38,5.00
2007,10,13,00,39,5.10
2007,10,13,00,40,5.10
2007,10,13,00,41,5.20
2007,10,13,00,42,5.30
2007,10,13,00,43,5.40
2007,10,13,00,44,5.50
2007,10,13,00,45,5.60
2007,10,13,00,46,5.70
2007,10,13,00,47,5.70
2007,10,13,00,48,5.80
2007,10,13,00,49,5.80
2007,10,13,00,50,5.70
2007,10,13,00,51,5.60
2007,10,13,00,52,5.40
2007,10,13,00,53,5.30
2007,10,13,00,54,5.20
2007,10,13,00,55,5.10
2007,10,13,00,56,5.00
2007,10,13,00,57,4.90
2007,10,13,00,58,4.90
2007,10,13,00,59,4.80
2007,10,13,01,00,4.70
2007,10,13,01,01,4.70
2007,10,13,01,02,4.60
2007,10,13,01,03,4.60
2007,10,13,01,04,4.60
2007,10,13,01,05,4.50
2007,10,13,01,06,4.50
2007,10,13,01,07,4.40
2007,10,13,01,08,4.40
2007,10,13,01,09,4.30
2007,10,13,01,10,4.30
2007,10,13,01,11,4.30
2007,10,13,01,12,4.30
2007,10,13,01,13,4.30
2007,10,13,01,14,4.30
2007,10,13,01,15,4.20
2007,10,13,01,16,4.20
2007,10,13,01,17,4.20
2007,10,13,01,18,4.10
2007,10,13,01,19,4.10
2007,10,13,01,20,4.10
2007,10,13,01,21,4.10
2007,10,13,01,22,4.10
2007,10,13,01,23,4.20
2007,10,13,01,24,4.20
2007,10,13,01,25,4.20
2007,10,13,01,26,4.20
2007,10,13,01,27,4.30
2007,10,13,01,28,4.30
2007,10,13,01,29,4.30
2007,10,13,01,30,4.30
2007,10,13,01,31,4.30
2007,10,13,01,32,4.30
2007,10,13,01,33,4.30
2007,10,13,01,34,4.30
2007,10,13,01,35,4.20
2007,10,13,01,36,4.20
2007,10,13,01,37,4.20
2007,10,13,01,38,4.20
2007,10,13,01,39,4.20
2007,10,13,01,40,4.20
2007,10,13,01,41,4.20
2007,10,13,01,42,4.20
2007,10,13,01,43,4.20
2007,10,13,01,44,4.20
2007,10,13,01,45,4.10
2007,10,13,01,46,4.10
2007,10,13,01,47,4.10
2007,10,13,01,48,4.10
2007,10,13,01,49,4.10
2007,10,13,01,50,4.10
2007,10,13,01,51,4.00
2007,10,13,01,52,4.00
2007,10,13,01,53,4.00
2007,10,13,01,54,4.00
2007,10,13,01,55,4.00
2007,10,13,01,56,4.00
2007,10,13,01,57,3.90
2007,10,13,01,58,3.90
2007,10,13,01,59,3.90
2007,10,13,02,00,3.80
2007,10,13,02,01,3.80
2007,10,13,02,02,3.80
2007,10,13,02,03,3.80
2007,10,13,02,04,3.70
2007,10,13,02,05,3.70
2007,10,13,02,06,3.70
2007,10,13,02,07,3.70
2007,10,13,02,08,3.70
2007,10,13,02,09,3.70
2007,10,13,02,10,3.70
2007,10,13,02,11,3.70
2007,10,13,02,12,3.70
2007,10,13,02,13,3.70
2007,10,13,02,14,3.70
2007,10,13,02,15,3.60
2007,10,13,02,16,3.60
2007,10,13,02,17,3.60
2007,10,13,02,18,3.60
2007,10,13,02,19,3.60
2007,10,13,02,20,3.60
2007,10,13,02,21,3.50
2007,10,13,02,22,3.50
2007,10,13,02,23,3.40
2007,10,13,02,24,3.40
2007,10,13,02,25,3.30
2007,10,13,02,26,3.30
2007,10,13,02,27,3.30
2007,10,13,02,28,3.20
2007,10,13,02,29,3.20
2007,10,13,02,30,3.20
2007,10,13,02,31,3.20
2007,10,13,02,32,3.10
2007,10,13,02,33,3.10
2007,10,13,02,34,3.10
2007,10,13,02,35,3.10
2007,10,13,02,36,3.10
2007,10,13,02,37,3.20
2007,10,13,02,38,3.20
2007,10,13,02,39,3.20
2007,10,13,02,40,3.20
2007,10,13,02,41,3.20
2007,10,13,02,42,3.20
2007,10,13,02,43,3.20
2007,10,13,02,44,3.20
2007,10,13,02,45,3.20
2007,10,13,02,46,3.20
2007,10,13,02,47,3.20
2007,10,13,02,48,3.20
2007,10,13,02,49,3.20
2007,10,13,02,50,3.20
2007,10,13,02,51,3.20
2007,10,13,02,52,3.20
2007,10,13,02,53,3.10
2007,10,13,02,54,3.10
2007,10,13,02,55,3.10
2007,10,13,02,56,3.10
2007,10,13,02,57,3.10
2007,10,13,02,58,3.10
2007,10,13,02,59,3.00
2007,10,13,03,00,3.00
2007,10,13,03,01,3.00
2007,10,13,03,02,2.90
2007,10,13,03,03,2.90
2007,10,13,03,04,2.90
2007,10,13,03,05,2.80
2007,10,13,03,06,2.80
2007,10,13,03,07,2.80
2007,10,13,03,08,2.80
2007,10,13,03,09,2.80
2007,10,13,03,10,2.80
2007,10,13,03,11,2.70
2007,10,13,03,12,2.70
2007,10,13,03,13,2.70
2007,10,13,03,14,2.70
2007,10,13,03,15,2.70
2007,10,13,03,16,2.70
2007,10,13,03,17,2.70
2007,10,13,03,18,2.70
2007,10,13,03,19,2.70
2007,10,13,03,20,2.70
2007,10,13,03,21,2.70
2007,10,13,03,22,2.70
2007,10,13,03,23,2.70
2007,10,13,03,24,2.70
2007,10,13,03,25,2.70
2007,10,13,03,26,2.70
2007,10,13,03,27,2.70
2007,10,13,03,28,2.70
2007,10,13,03,29,2.70
2007,10,13,03,30,2.70
2007,10,13,03,31,2.70
2007,10,13,03,32,2.70
2007,10,13,03,33,2.70
2007,10,13,03,34,2.70
2007,10,13,03,35,2.70
2007,10,13,03,36,2.70
2007,10,13,03,37,2.70
2007,10,13,03,38,2.80
2007,10,13,03,39,2.90
2007,10,13,03,40,2.90
2007,10,13,03,41,2.90
2007,10,13,03,42,3.00
2007,10,13,03,43,3.00
2007,10,13,03,44,3.00
2007,10,13,03,45,3.00
2007,10,13,03,46,3.10
2007,10,13,03,47,3.10
2007,10,13,03,48,3.10
2007,10,13,03,49,3.10
2007,10,13,03,50,3.20
2007,10,13,03,51,3.10
2007,10,13,03,52,3.10
2007,10,13,03,53,3.10
2007,10,13,03,54,3.10
2007,10,13,03,55,3.10
2007,10,13,03,56,3.10
2007,10,13,03,57,3.10
2007,10,13,03,58,3.00
2007,10,13,03,59,3.00
2007,10,13,04,00,3.00
2007,10,13,04,01,2.90
2007,10,13,04,02,2.90
2007,10,13,04,03,2.90
2007,10,13,04,04,2.90
2007,10,13,04,05,2.90
2007,10,13,04,06,2.90
2007,10,13,04,07,2.80
2007,10,13,04,08,2.80
2007,10,13,04,09,2.80
2007,10,13,04,10,2.80
2007,10,13,04,11,2.80
2007,10,13,04,12,2.80
2007,10,13,04,13,2.70
2007,10,13,04,14,2.70
2007,10,13,04,15,2.70
2007,10,13,04,16,2.70
2007,10,13,04,17,2.60
2007,10,13,04,18,2.70
2007,10,13,04,19,2.70
2007,10,13,04,20,2.70
2007,10,13,04,21,2.70
2007,10,13,04,22,2.70
2007,10,13,04,23,2.60
2007,10,13,04,24,2.60
2007,10,13,04,25,2.60
2007,10,13,04,26,2.70
2007,10,13,04,27,2.70
2007,10,13,04,28,2.70
2007,10,13,04,29,2.70
2007,10,13,04,30,2.70
2007,10,13,04,31,2.70
2007,10,13,04,32,2.70
2007,10,13,04,33,2.70
2007,10,13,04,34,2.70
2007,10,13,04,35,2.70
2007,10,13,04,36,2.70
2007,10,13,04,37,2.70
2007,10,13,04,38,2.70
2007,10,13,04,39,2.60
2007,10,13,04,40,2.60
2007,10,13,04,41,2.60
2007,10,13,04,42,2.60
2007,10,13,04,43,2.60
2007,10,13,04,44,2.60
2007,10,13,04,45,2.60
2007,10,13,04,46,2.50
2007,10,13,04,47,2.50
2007,10,13,04,48,2.50
2007,10,13,04,49,2.50
2007,10,13,04,50,2.50
2007,10,13,04,51,2.60
2007,10,13,04,52,2.70
2007,10,13,04,53,2.90
2007,10,13,04,54,3.00
2007,10,13,04,55,3.10
2007,10,13,04,56,3.20
2007,10,13,04,57,3.40
2007,10,13,04,58,3.50
2007,10,13,04,59,3.50
2007,10,13,05,00,3.50
2007,10,13,05,01,3.40
2007,10,13,05,02,3.40
2007,10,13,05,03,3.40
2007,10,13,05,04,3.30
2007,10,13,05,05,3.30
2007,10,13,05,06,3.20
2007,10,13,05,07,3.20
2007,10,13,05,08,3.10
2007,10,13,05,09,3.10
2007,10,13,05,10,3.00
2007,10,13,05,11,3.00
2007,10,13,05,12,2.90
2007,10,13,05,13,2.80
2007,10,13,05,14,2.80
2007,10,13,05,15,2.70
2007,10,13,05,16,2.70
2007,10,13,05,17,2.70
2007,10,13,05,18,2.60
2007,10,13,05,19,2.60
2007,10,13,05,20,2.60
2007,10,13,05,21,2.50
2007,10,13,05,22,2.50
2007,10,13,05,23,2.50
2007,10,13,05,24,2.40
2007,10,13,05,25,2.40
2007,10,13,05,26,2.40
2007,10,13,05,27,2.40
2007,10,13,05,28,2.40
2007,10,13,05,29,2.40
2007,10,13,05,30,2.40
2007,10,13,05,31,2.40
2007,10,13,05,32,2.40
2007,10,13,05,33,2.40
2007,10,13,05,34,2.40
2007,10,13,05,35,2.50
2007,10,13,05,36,2.50
2007,10,13,05,37,2.50
2007,10,13,05,38,2.40
2007,10,13,05,39,2.40
2007,10,13,05,40,2.40
2007,10,13,05,41,2.40
2007,10,13,05,42,2.30
2007,10,13,05,43,2.30
2007,10,13,05,44,2.30
2007,10,13,05,45,2.30
2007,10,13,05,46,2.20
2007,10,13,05,47,2.20
2007,10,13,05,48,2.20
2007,10,13,05,49,2.20
2007,10,13,05,50,2.20
2007,10,13,05,51,2.20
2007,10,13,05,52,2.20
2007,10,13,05,53,2.10
2007,10,13,05,54,2.10
2007,10,13,05,55,2.10
2007,10,13,05,56,2.10
2007,10,13,05,57,2.10
2007,10,13,05,58,2.10
2007,10,13,05,59,2.00
2007,10,13,06,00,2.00
2007,10,13,06,01,2.00
2007,10,13,06,02,2.00
2007,10,13,06,03,2.00
2007,10,13,06,04,2.00
2007,10,13,06,05,2.00
2007,10,13,06,06,2.00
2007,10,13,06,07,2.10
2007,10,13,06,08,2.10
2007,10,13,06,09,2.10
2007,10,13,06,10,2.20
2007,10,13,06,11,2.30
2007,10,13,06,12,2.30
2007,10,13,06,13,2.40
2007,10,13,06,14,2.40
2007,10,13,06,15,2.40
2007,10,13,06,16,2.40
2007,10,13,06,17,2.40
2007,10,13,06,18,2.40
2007,10,13,06,19,2.30
2007,10,13,06,20,2.40
2007,10,13,06,21,2.40
2007,10,13,06,22,2.40
2007,10,13,06,23,2.40
2007,10,13,06,24,2.40
2007,10,13,06,25,2.40
2007,10,13,06,26,2.50
2007,10,13,06,27,2.50
2007,10,13,06,28,2.60
2007,10,13,06,29,2.60
2007,10,13,06,30,2.60
2007,10,13,06,31,2.60
2007,10,13,06,32,2.60
2007,10,13,06,33,2.60
2007,10,13,06,34,2.60
2007,10,13,06,35,2.60
2007,10,13,06,36,2.50
2007,10,13,06,37,2.50
2007,10,13,06,38,2.50
2007,10,13,06,39,2.40
2007,10,13,06,40,2.40
2007,10,13,06,41,2.40
2007,10,13,06,42,2.40
2007,10,13,06,43,2.40
2007,10,13,06,44,2.30
2007,10,13,06,45,2.30
2007,10,13,06,46,2.30
2007,10,13,06,47,2.30
2007,10,13,06,48,2.40
2007,10,13,06,49,2.40
2007,10,13,06,50,2.40
2007,10,13,06,51,2.50
2007,10,13,06,52,2.50
2007,10,13,06,53,2.60
2007,10,13,06,54,2.60
2007,10,13,06,55,2.70
2007,10,13,06,56,2.70
2007,10,13,06,57,2.70
2007,10,13,06,58,2.70
2007,10,13,06,59,2.70
2007,10,13,07,00,2.80
2007,10,13,07,01,2.80
2007,10,13,07,02,2.90
2007,10,13,07,03,3.00
2007,10,13,07,04,3.00
2007,10,13,07,05,3.10
2007,10,13,07,06,3.20
2007,10,13,07,07,3.30
2007,10,13,07,08,3.30
2007,10,13,07,09,3.40
2007,10,13,07,10,3.40
2007,10,13,07,11,3.50
2007,10,13,07,12,3.50
2007,10,13,07,13,3.50
2007,10,13,07,14,3.50
2007,10,13,07,15,3.50
2007,10,13,07,16,3.50
2007,10,13,07,17,3.60
2007,10,13,07,18,3.70
2007,10,13,07,19,3.70
2007,10,13,07,20,3.70
2007,10,13,07,21,3.60
2007,10,13,07,22,3.60
2007,10,13,07,23,3.60
2007,10,13,07,24,3.60
2007,10,13,07,25,3.70
2007,10,13,07,26,3.80
2007,10,13,07,27,3.80
2007,10,13,07,28,3.80
2007,10,13,07,29,3.80
2007,10,13,07,30,3.80
2007,10,13,07,31,3.80
2007,10,13,07,32,3.90
2007,10,13,07,33,4.00
2007,10,13,07,34,4.00
2007,10,13,07,35,4.10
2007,10,13,07,36,4.10
2007,10,13,07,37,4.10
2007,10,13,07,38,4.10
2007,10,13,07,39,4.10
2007,10,13,07,40,4.00
2007,10,13,07,41,4.00
2007,10,13,07,42,3.90
2007,10,13,07,43,3.80
2007,10,13,07,44,3.80
2007,10,13,07,45,3.80
2007,10,13,07,46,3.70
2007,10,13,07,47,3.70
2007,10,13,07,48,3.60
2007,10,13,07,49,3.60
2007,10,13,07,50,3.50
2007,10,13,07,51,3.50
2007,10,13,07,52,3.50
2007,10,13,07,53,3.50
2007,10,13,07,54,3.50
2007,10,13,07,55,3.50
2007,10,13,07,56,3.60
2007,10,13,07,57,3.60
2007,10,13,07,58,3.70
2007,10,13,07,59,3.80
2007,10,13,08,00,3.90
2007,10,13,08,01,4.00
2007,10,13,08,02,4.10
2007,10,13,08,03,4.20
2007,10,13,08,04,4.30
2007,10,13,08,05,4.40
2007,10,13,08,06,4.50
2007,10,13,08,07,4.60
2007,10,13,08,08,4.70
2007,10,13,08,09,4.70
2007,10,13,08,10,4.70
2007,10,13,08,11,4.70
2007,10,13,08,12,4.70
2007,10,13,08,13,4.70
2007,10,13,08,14,4.70
2007,10,13,08,15,4.70
2007,10,13,08,16,4.70
2007,10,13,08,17,4.80
2007,10,13,08,18,4.80
2007,10,13,08,19,4.90
2007,10,13,08,20,4.90
2007,10,13,08,21,4.90
2007,10,13,08,22,5.00
2007,10,13,08,23,5.00
2007,10,13,08,24,5.10
2007,10,13,08,25,5.10
2007,10,13,08,26,5.20
2007,10,13,08,27,5.20
2007,10,13,08,28,5.30
2007,10,13,08,29,5.30
2007,10,13,08,30,5.30
2007,10,13,08,31,5.30
2007,10,13,08,32,5.30
2007,10,13,08,33,5.40
2007,10,13,08,34,5.40
2007,10,13,08,35,5.40
2007,10,13,08,36,5.40
2007,10,13,08,37,5.40
2007,10,13,08,38,5.40
2007,10,13,08,39,5.40
2007,10,13,08,40,5.40
2007,10,13,08,41,5.40
2007,10,13,08,42,5.40
2007,10,13,08,43,5.40
2007,10,13,08,44,5.50
2007,10,13,08,45,5.50
2007,10,13,08,46,5.50
2007,10,13,08,47,5.50
2007,10,13,08,48,5.60
2007,10,13,08,49,5.60
2007,10,13,08,50,5.60
2007,10,13,08,51,5.60
2007,10,13,08,52,5.60
2007,10,13,08,53,5.70
2007,10,13,08,54,5.70
2007,10,13,08,55,5.80
2007,10,13,08,56,5.80
2007,10,13,08,57,5.90
2007,10,13,08,58,5.90
2007,10,13,08,59,5.90
2007,10,13,09,00,6.00
2007,10,13,09,01,6.00
2007,10,13,09,02,6.00
2007,10,13,09,03,6.00
2007,10,13,09,04,6.00
2007,10,13,09,05,6.10
2007,10,13,09,06,6.10
2007,10,13,09,07,6.10
2007,10,13,09,08,6.10
2007,10,13,09,09,6.10
2007,10,13,09,10,6.10
2007,10,13,09,11,6.20
2007,10,13,09,12,6.20
2007,10,13,09,13,6.20
2007,10,13,09,14,6.30
2007,10,13,09,15,6.30
2007,10,13,09,16,6.30
2007,10,13,09,17,6.40
2007,10,13,09,18,6.40
2007,10,13,09,19,6.50
2007,10,13,09,20,6.50
2007,10,13,09,21,6.60
2007,10,13,09,22,6.60
2007,10,13,09,23,6.70
2007,10,13,09,24,6.70
2007,10,13,09,25,6.70
2007,10,13,09,26,6.80
2007,10,13,09,27,6.90
2007,10,13,09,28,6.90
2007,10,13,09,29,6.90
2007,10,13,09,30,7.00
2007,10,13,09,31,7.10
2007,10,13,09,32,7.20
2007,10,13,09,33,7.20
2007,10,13,09,34,7.20
2007,10,13,09,35,7.20
2007,10,13,09,36,7.30
2007,10,13,09,37,7.30
2007,10,13,09,38,7.30
2007,10,13,09,39,7.40
2007,10,13,09,40,7.40
2007,10,13,09,41,7.40
2007,10,13,09,42,7.50
2007,10,13,09,43,7.50
2007,10,13,09,44,7.60
2007,10,13,09,45,7.60
2007,10,13,09,46,7.60
2007,10,13,09,47,7.60
2007,10,13,09,48,7.60
2007,10,13,09,49,7.60
2007,10,13,09,50,7.60
2007,10,13,09,51,7.70
2007,10,13,09,52,7.70
2007,10,13,09,53,7.70
2007,10,13,09,54,7.70
2007,10,13,09,55,7.80
2007,10,13,09,56,7.80
2007,10,13,09,57,7.90
2007,10,13,09,58,7.90
2007,10,13,09,59,7.90
2007,10,13,10,00,7.90
2007,10,13,10,01,8.00
2007,10,13,10,02,8.00
2007,10,13,10,03,8.00
2007,10,13,10,04,8.10
2007,10,13,10,05,8.10
2007,10,13,10,06,8.10
2007,10,13,10,07,8.20
2007,10,13,10,08,8.20
2007,10,13,10,09,8.20
2007,10,13,10,10,8.30
2007,10,13,10,11,8.30
2007,10,13,10,12,8.30
2007,10,13,10,13,8.30
2007,10,13,10,14,8.40
2007,10,13,10,15,8.40
2007,10,13,10,16,8.50
2007,10,13,10,17,8.60
2007,10,13,10,18,8.70
2007,10,13,10,19,8.90
2007,10,13,10,20,9.10
2007,10,13,10,21,9.30
2007,10,13,10,22,9.50
2007,10,13,10,23,9.70
2007,10,13,10,24,9.90
2007,10,13,10,25,10.00
2007,10,13,10,26,10.20
2007,10,13,10,27,10.30
2007,10,13,10,28,10.30
2007,10,13,10,29,10.40
2007,10,13,10,30,10.50
2007,10,13,10,31,10.50
2007,10,13,10,32,10.60
2007,10,13,10,33,10.60
2007,10,13,10,34,10.60
2007,10,13,10,35,10.60
2007,10,13,10,36,10.60
2007,10,13,10,37,10.60
2007,10,13,10,38,10.60
2007,10,13,10,39,10.70
2007,10,13,10,40,10.80
2007,10,13,10,41,10.90
2007,10,13,10,42,11.00
2007,10,13,10,43,11.20
2007,10,13,10,44,11.30
2007,10,13,10,45,11.40
2007,10,13,10,46,11.60
2007,10,13,10,47,11.60
2007,10,13,10,48,11.60
2007,10,13,10,49,11.60
2007,10,13,10,50,11.50
2007,10,13,10,51,11.60
2007,10,13,10,52,11.70
2007,10,13,10,53,11.80
2007,10,13,10,54,11.70
2007,10,13,10,55,11.70
2007,10,13,10,56,11.60
2007,10,13,10,57,11.50
2007,10,13,10,58,11.40
2007,10,13,10,59,11.30
2007,10,13,11,00,11.30
2007,10,13,11,01,11.20
2007,10,13,11,02,11.20
2007,10,13,11,03,11.10
2007,10,13,11,04,11.10
2007,10,13,11,05,11.10
2007,10,13,11,06,11.00
2007,10,13,11,07,11.00
2007,10,13,11,08,11.00
2007,10,13,11,09,11.10
2007,10,13,11,10,11.10
2007,10,13,11,11,11.20
2007,10,13,11,12,11.30
2007,10,13,11,13,11.30
2007,10,13,11,14,11.40
2007,10,13,11,15,11.40
2007,10,13,11,16,11.40
2007,10,13,11,17,11.40
2007,10,13,11,18,11.40
2007,10,13,11,19,11.40
2007,10,13,11,20,11.50
2007,10,13,11,21,11.50
2007,10,13,11,22,11.50
2007,10,13,11,23,11.50
2007,10,13,11,24,11.60
2007,10,13,11,25,11.70
2007,10,13,11,26,11.80
2007,10,13,11,27,11.90
2007,10,13,11,28,12.10
2007,10,13,11,29,12.30
2007,10,13,11,30,12.40
2007,10,13,11,31,12.50
2007,10,13,11,32,12.60
2007,10,13,11,33,12.60
2007,10,13,11,34,12.60
2007,10,13,11,35,12.70
2007,10,13,11,36,12.60
2007,10,13,11,37,12.60
2007,10,13,11,38,12.50
2007,10,13,11,39,12.40
2007,10,13,11,40,12.30
2007,10,13,11,41,12.20
2007,10,13,11,42,12.10
2007,10,13,11,43,12.10
2007,10,13,11,44,12.10
2007,10,13,11,45,12.10
2007,10,13,11,46,12.10
2007,10,13,11,47,12.20
2007,10,13,11,48,12.30
2007,10,13,11,49,12.40
2007,10,13,11,50,12.40
2007,10,13,11,51,12.50
2007,10,13,11,52,12.60
2007,10,13,11,53,12.60
2007,10,13,11,54,12.70
2007,10,13,11,55,12.70
2007,10,13,11,56,12.80
2007,10,13,11,57,12.80
2007,10,13,11,58,12.70
2007,10,13,11,59,12.70
2007,10,13,12,00,12.70
2007,10,13,12,01,12.60
2007,10,13,12,02,12.60
2007,10,13,12,03,12.70
2007,10,13,12,04,12.70
2007,10,13,12,05,12.70
2007,10,13,12,06,12.70
2007,10,13,12,07,12.60
2007,10,13,12,08,12.60
2007,10,13,12,09,12.70
2007,10,13,12,10,12.60
2007,10,13,12,11,12.60
2007,10,13,12,12,12.60
2007,10,13,12,13,12.60
2007,10,13,12,14,12.60
2007,10,13,12,15,12.60
2007,10,13,12,16,12.70
2007,10,13,12,17,12.80
2007,10,13,12,18,12.90
2007,10,13,12,19,12.90
2007,10,13,12,20,13.00
2007,10,13,12,21,13.00
2007,10,13,12,22,13.10
2007,10,13,12,23,13.10
2007,10,13,12,24,13.10
2007,10,13,12,25,13.10
2007,10,13,12,26,13.00
2007,10,13,12,27,12.90
2007,10,13,12,28,12.80
2007,10,13,12,29,12.80
2007,10,13,12,30,12.80
2007,10,13,12,31,12.80
2007,10,13,12,32,12.80
2007,10,13,12,33,12.80
2007,10,13,12,34,12.80
2007,10,13,12,35,12.90
2007,10,13,12,36,12.90
2007,10,13,12,37,13.00
2007,10,13,12,38,13.10
2007,10,13,12,39,13.10
2007,10,13,12,40,13.20
2007,10,13,12,41,13.30
2007,10,13,12,42,13.40
2007,10,13,12,43,13.30
2007,10,13,12,44,13.20
2007,10,13,12,45,13.10
2007,10,13,12,46,13.00
2007,10,13,12,47,12.90
2007,10,13,12,48,13.00
2007,10,13,12,49,13.00
2007,10,13,12,50,13.10
2007,10,13,12,51,13.20
2007,10,13,12,52,13.30
2007,10,13,12,53,13.50
2007,10,13,12,54,13.70
2007,10,13,12,55,13.80
2007,10,13,12,56,13.90
2007,10,13,12,57,14.00
2007,10,13,12,58,14.10
2007,10,13,12,59,14.10
2007,10,13,13,00,14.10
2007,10,13,13,01,14.10
2007,10,13,13,02,14.20
2007,10,13,13,03,14.20
2007,10,13,13,04,14.10
2007,10,13,13,05,14.10
2007,10,13,13,06,14.10
2007,10,13,13,07,14.10
2007,10,13,13,08,14.10
2007,10,13,13,09,14.10
2007,10,13,13,10,14.00
2007,10,13,13,11,14.00
2007,10,13,13,12,13.90
2007,10,13,13,13,13.90
2007,10,13,13,14,13.90
2007,10,13,13,15,13.90
2007,10,13,13,16,13.90
2007,10,13,13,17,13.90
2007,10,13,13,18,13.90
2007,10,13,13,19,14.00
2007,10,13,13,20,14.00
2007,10,13,13,21,14.10
2007,10,13,13,22,14.20
2007,10,13,13,23,14.30
2007,10,13,13,24,14.40
2007,10,13,13,25,14.40
2007,10,13,13,26,14.30
2007,10,13,13,27,14.30
2007,10,13,13,28,14.20
2007,10,13,13,29,14.20
2007,10,13,13,30,14.20
2007,10,13,13,31,14.20
2007,10,13,13,32,14.20
2007,10,13,13,33,14.20
2007,10,13,13,34,14.20
2007,10,13,13,35,14.20
2007,10,13,13,36,14.20
2007,10,13,13,37,14.20
2007,10,13,13,38,14.20
2007,10,13,13,39,14.30
2007,10,13,13,40,14.30
2007,10,13,13,41,14.30
2007,10,13,13,42,14.30
2007,10,13,13,43,14.20
2007,10,13,13,44,14.20
2007,10,13,13,45,14.30
2007,10,13,13,46,14.30
2007,10,13,13,47,14.30
2007,10,13,13,48,14.30
2007,10,13,13,49,14.30
2007,10,13,13,50,14.20
2007,10,13,13,51,14.20
2007,10,13,13,52,14.30
2007,10,13,13,53,14.30
2007,10,13,13,54,14.30
2007,10,13,13,55,14.30
2007,10,13,13,56,14.30
2007,10,13,13,57,14.40
2007,10,13,13,58,14.40
2007,10,13,13,59,14.40
2007,10,13,14,00,14.40
2007,10,13,14,01,14.40
2007,10,13,14,02,14.50
2007,10,13,14,03,14.50
2007,10,13,14,04,14.50
2007,10,13,14,05,14.60
2007,10,13,14,06,14.70
2007,10,13,14,07,14.80
2007,10,13,14,08,14.80
2007,10,13,14,09,14.90
2007,10,13,14,10,14.90
2007,10,13,14,11,15.00
2007,10,13,14,12,15.00
2007,10,13,14,13,15.00
2007,10,13,14,14,15.00
2007,10,13,14,15,15.00
2007,10,13,14,16,15.00
2007,10,13,14,17,14.80
2007,10,13,14,18,14.70
2007,10,13,14,19,14.70
2007,10,13,14,20,14.70
2007,10,13,14,21,14.70
2007,10,13,14,22,14.60
2007,10,13,14,23,14.50
2007,10,13,14,24,14.40
2007,10,13,14,25,14.40
2007,10,13,14,26,14.50
2007,10,13,14,27,14.50
2007,10,13,14,28,14.50
2007,10,13,14,29,14.50
2007,10,13,14,30,14.60
2007,10,13,14,31,14.60
2007,10,13,14,32,14.70
2007,10,13,14,33,14.70
2007,10,13,14,34,14.80
2007,10,13,14,35,14.90
2007,10,13,14,36,15.00
2007,10,13,14,37,14.90
2007,10,13,14,38,14.80
2007,10,13,14,39,14.70
2007,10,13,14,40,14.70
2007,10,13,14,41,14.60
2007,10,13,14,42,14.60
2007,10,13,14,43,14.70
2007,10,13,14,44,14.70
2007,10,13,14,45,14.80
2007,10,13,14,46,14.90
2007,10,13,14,47,14.80
2007,10,13,14,48,14.80
2007,10,13,14,49,14.80
2007,10,13,14,50,14.80
2007,10,13,14,51,14.80
2007,10,13,14,52,14.80
2007,10,13,14,53,14.80
2007,10,13,14,54,14.80
2007,10,13,14,55,14.80
2007,10,13,14,56,14.80
2007,10,13,14,57,14.80
2007,10,13,14,58,14.80
2007,10,13,14,59,14.80
2007,10,13,15,00,14.80
2007,10,13,15,01,14.80
2007,10,13,15,02,14.80
2007,10,13,15,03,14.80
2007,10,13,15,04,14.80
2007,10,13,15,05,14.80
2007,10,13,15,06,14.70
2007,10,13,15,07,14.80
2007,10,13,15,08,14.80
2007,10,13,15,09,14.90
2007,10,13,15,10,14.90
2007,10,13,15,11,14.90
2007,10,13,15,12,14.90
2007,10,13,15,13,14.90
2007,10,13,15,14,14.90
2007,10,13,15,15,14.90
2007,10,13,15,16,14.80
2007,10,13,15,17,14.80
2007,10,13,15,18,14.90
2007,10,13,15,19,15.00
2007,10,13,15,20,15.00
2007,10,13,15,21,15.00
2007,10,13,15,22,15.00
2007,10,13,15,23,14.90
2007,10,13,15,24,14.80
2007,10,13,15,25,14.80
2007,10,13,15,26,14.80
2007,10,13,15,27,14.80
2007,10,13,15,28,14.80
2007,10,13,15,29,14.80
2007,10,13,15,30,14.80
2007,10,13,15,31,14.80
2007,10,13,15,32,14.80
2007,10,13,15,33,14.80
2007,10,13,15,34,14.80
2007,10,13,15,35,14.80
2007,10,13,15,36,14.70
2007,10,13,15,37,14.70
2007,10,13,15,38,14.70
2007,10,13,15,39,14.70
2007,10,13,15,40,14.60
2007,10,13,15,41,14.60
2007,10,13,15,42,14.60
2007,10,13,15,43,14.60
2007,10,13,15,44,14.60
2007,10,13,15,45,14.60
2007,10,13,15,46,14.60
2007,10,13,15,47,14.50
2007,10,13,15,48,14.50
2007,10,13,15,49,14.40
2007,10,13,15,50,14.40
2007,10,13,15,51,14.40
2007,10,13,15,52,14.40
2007,10,13,15,53,14.50
2007,10,13,15,54,14.50
2007,10,13,15,55,14.50
2007,10,13,15,56,14.60
2007,10,13,15,57,14.60
2007,10,13,15,58,14.70
2007,10,13,15,59,14.70
2007,10,13,16,00,14.70
2007,10,13,16,01,14.70
2007,10,13,16,02,14.80
2007,10,13,16,03,14.80
2007,10,13,16,04,14.80
2007,10,13,16,05,14.80
2007,10,13,16,06,14.90
2007,10,13,16,07,14.90
2007,10,13,16,08,14.90
2007,10,13,16,09,14.90
2007,10,13,16,10,14.80
2007,10,13,16,11,14.80
2007,10,13,16,12,14.80
2007,10,13,16,13,14.80
2007,10,13,16,14,14.80
2007,10,13,16,15,14.80
2007,10,13,16,16,14.80
2007,10,13,16,17,14.80
2007,10,13,16,18,14.80
2007,10,13,16,19,14.80
2007,10,13,16,20,14.80
2007,10,13,16,21,14.80
2007,10,13,16,22,14.90
2007,10,13,16,23,14.90
2007,10,13,16,24,14.90
2007,10,13,16,25,14.80
2007,10,13,16,26,14.80
2007,10,13,16,27,14.80
2007,10,13,16,28,14.80
2007,10,13,16,29,14.80
2007,10,13,16,30,14.80
2007,10,13,16,31,14.80
2007,10,13,16,32,14.80
2007,10,13,16,33,14.90
2007,10,13,16,34,14.80
2007,10,13,16,35,14.80
2007,10,13,16,36,14.80
2007,10,13,16,37,14.80
2007,10,13,16,38,14.70
2007,10,13,16,39,14.70
2007,10,13,16,40,14.70
2007,10,13,16,41,14.70
2007,10,13,16,42,14.70
2007,10,13,16,43,14.60
2007,10,13,16,44,14.60
2007,10,13,16,45,14.50
2007,10,13,16,46,14.50
2007,10,13,16,47,14.50
2007,10,13,16,48,14.50
2007,10,13,16,49,14.50
2007,10,13,16,50,14.50
2007,10,13,16,51,14.50
2007,10,13,16,52,14.50
2007,10,13,16,53,14.50
2007,10,13,16,54,14.50
2007,10,13,16,55,14.50
2007,10,13,16,56,14.50
2007,10,13,16,57,14.40
2007,10,13,16,58,14.40
2007,10,13,16,59,14.30
2007,10,13,17,00,14.30
2007,10,13,17,01,14.30
2007,10,13,17,02,14.20
2007,10,13,17,03,14.20
2007,10,13,17,04,14.20
2007,10,13,17,05,14.20
2007,10,13,17,06,14.20
2007,10,13,17,07,14.20
2007,10,13,17,08,14.20
2007,10,13,17,09,14.20
2007,10,13,17,10,14.20
2007,10,13,17,11,14.20
2007,10,13,17,12,14.20
2007,10,13,17,13,14.20
2007,10,13,17,14,14.10
2007,10,13,17,15,14.10
2007,10,13,17,16,14.10
2007,10,13,17,17,14.10
2007,10,13,17,18,14.10
2007,10,13,17,19,14.10
2007,10,13,17,20,14.10
2007,10,13,17,21,14.10
2007,10,13,17,22,14.10
2007,10,13,17,23,14.10
2007,10,13,17,24,14.10
2007,10,13,17,25,14.10
2007,10,13,17,26,14.00
2007,10,13,17,27,14.00
2007,10,13,17,28,13.90
2007,10,13,17,29,13.90
2007,10,13,17,30,13.90
2007,10,13,17,31,13.90
2007,10,13,17,32,13.80
2007,10,13,17,33,13.80
2007,10,13,17,34,13.80
2007,10,13,17,35,13.80
2007,10,13,17,36,13.80
2007,10,13,17,37,13.80
2007,10,13,17,38,13.80
2007,10,13,17,39,13.80
2007,10,13,17,40,13.70
2007,10,13,17,41,13.70
2007,10,13,17,42,13.70
2007,10,13,17,43,13.70
2007,10,13,17,44,13.70
2007,10,13,17,45,13.70
2007,10,13,17,46,13.70